Lexington Weather

Lexington, Massachusetts, USA

49°F
12/8/2022 2:52pm 
  • Lexington Conditions: Clear
  • Temperature: 48.6°F / 9.2°CColder 1.4°F than last hour.
  • Dew Point: 35.2°FDecreased 0.2°Fsince last hour.
  • Relative Humidity: 60%Increased 3.0% since last hour.
  • Wind: Wind from N N Calm, 10-min avg: 2 mph, gust: 8 mph
  • Barometer: 30.07 in Steady
  • Visibility: 10 miles
  • Rain Today: 0.00 in
  •   

Warning: Undefined variable $rc in /homepages/6/d276339138/htdocs/weather/20190804/ssi/nwsProduct.php on line 323

Warning: Undefined variable $rc in /homepages/6/d276339138/htdocs/weather/20190804/ssi/nwsProduct.php on line 325

Warning: Undefined variable $rc in /homepages/6/d276339138/htdocs/weather/20190804/ssi/nwsProduct.php on line 323

Warning: Undefined variable $rc in /homepages/6/d276339138/htdocs/weather/20190804/ssi/nwsProduct.php on line 325

Warning: Undefined variable $rc in /homepages/6/d276339138/htdocs/weather/20190804/ssi/nwsProduct.php on line 323

Warning: Undefined variable $rc in /homepages/6/d276339138/htdocs/weather/20190804/ssi/nwsProduct.php on line 325

Warning: Undefined variable $rc in /homepages/6/d276339138/htdocs/weather/20190804/ssi/nwsProduct.php on line 323

Warning: Undefined variable $rc in /homepages/6/d276339138/htdocs/weather/20190804/ssi/nwsProduct.php on line 325

Warning: Undefined variable $rc in /homepages/6/d276339138/htdocs/weather/20190804/ssi/nwsProduct.php on line 323

Warning: Undefined variable $rc in /homepages/6/d276339138/htdocs/weather/20190804/ssi/nwsProduct.php on line 325

Warning: Undefined variable $rc in /homepages/6/d276339138/htdocs/weather/20190804/ssi/nwsProduct.php on line 323

Warning: Undefined variable $rc in /homepages/6/d276339138/htdocs/weather/20190804/ssi/nwsProduct.php on line 325

Warning: Undefined variable $rc in /homepages/6/d276339138/htdocs/weather/20190804/ssi/nwsProduct.php on line 323

Warning: Undefined variable $rc in /homepages/6/d276339138/htdocs/weather/20190804/ssi/nwsProduct.php on line 325

Regional Weather Roundup
for Boston, MA

        
000
ASUS41 KBOX 071610
RWRBOX

REGIONAL WEATHER ROUNDUP
NATIONAL WEATHER SERVICE BOSTON/NORTON MA
1100 AM EST WED DEC 07 2022

NOTE:  "FAIR" INDICATES FEW OR NO CLOUDS BELOW 12,000 FEET WITH NO 
SIGNIFICANT WEATHER AND/OR OBSTRUCTIONS TO VISIBILITY.

MAZALL-071700-
EASTERN MASSACHUSETTS
  
CITY           SKY/WX    TMP DP  RH WIND       PRES   REMARKS
BOSTON         CLOUDY    54  52  93 S12       30.22F                  
BEVERLY        CLOUDY    51  50  96 SE13      30.20F FOG              
LAWRENCE       CLOUDY    53  51  93 VRB6      30.22F                  
BEDFORD        LGT RAIN  56  53  90 S10       30.19F FOG              
NORWOOD        LGT RAIN  57  53  86 S8        30.21F                  
MARSHFIELD     LGT RAIN  54  52  94 S13G20    30.22F                  
PLYMOUTH       CLOUDY    55  53  93 S9G21     30.24F                  
TAUNTON          N/A    N/A N/A N/A MISG      30.23F                  
NEW BEDFORD    LGT RAIN  54  54 100 SE13      30.24F FOG              
$$

MAZALL-071700-
CAPE COD AND THE ISLANDS
  
CITY           SKY/WX    TMP DP  RH WIND       PRES   REMARKS
FALMOUTH       DRIZZLE   52  52 100 S16       30.26F                  
HYANNIS        LGT RAIN  52  52 100 SE13G18   30.25F FOG              
CHATHAM        HVY RAIN  54  52  93 S9G21     30.28F FOG              
PROVINCETOWN   CLOUDY    52  52 100 SE16G22   30.25F                  
NANTUCKET      RAIN      54  53  97 SE12      30.29F FOG              
MARTHAS VNYRD  LGT RAIN  55  54  96 SE17      30.25F                  
$$
 
MAZALL-071700-
CENTRAL AND WESTERN MASSACHUSETTS
  
CITY           SKY/WX    TMP DP  RH WIND       PRES   REMARKS
WORCESTER      CLOUDY    56  54  93 S10G20    30.18F FOG              
FITCHBURG      FOG       51  49  92 CALM      30.19F VSB 1/2          
ORANGE         CLOUDY    56  54  93 S10       30.16F FOG              
SPRINGFIELD    LGT RAIN  57  57  99 S8        30.14F                  
WESTFIELD      CLOUDY    56  55  97 S9        30.16F FOG              
NORTH ADAMS    CLOUDY    56  53  90 E6        30.14F                  
PITTSFIELD     CLOUDY    54  53  97 SW7       30.13F                  
$$
 
RIZALL-071700-
RHODE ISLAND
  
CITY           SKY/WX    TMP DP  RH WIND       PRES   REMARKS
PROVIDENCE     RAIN      55  55 100 S14       30.23F FOG              
NEWPORT        LGT RAIN  54  54 100 S9        30.23F FOG              
BLOCK ISLAND   LGT RAIN  55  54  96 S12       30.23F FOG              
SMITHFIELD     LGT RAIN  55  55 100 VRB7      30.21F                  
WESTERLY       LGT RAIN  56  56 100 S13G22    30.21F FOG              
$$
 
CTZALL-071700-
CONNECTICUT
  
CITY           SKY/WX    TMP DP  RH WIND       PRES   REMARKS
BRADLEY INTL   CLOUDY    58  56  93 S9        30.17F                  
HARTFORD       CLOUDY    58  56  93 S9        30.17F                  
BRIDGEPORT     LGT RAIN  54  54 100 SW6       30.18F FOG              
DANBURY        CLOUDY    59  56  89 SE5       30.17F                  
GROTON         LGT RAIN  57  55  93 S9        30.20F FOG              
NEW HAVEN      FOG       58  57  97 CALM      30.18F VSB 3/4          
CHESTER        LGT RAIN  57  57 100 S3        30.19F VSB 3/4          
MERIDEN        CLOUDY    57  54  89 S9        30.18F FOG              
WILLIMANTIC    CLOUDY    57  56  96 S8        30.19F                  
OXFORD         FOG       55  55 100 S8        30.18F VSB 1/4          
$$

MEZ002-015-021-024-NHZ003-005-008-011-012-014-VTZ005-008-071700-
NORTHERN NEW ENGLAND
  
CITY           SKY/WX    TMP DP  RH WIND       PRES   REMARKS
PORTLAND ME    LGT RAIN  49  49 100 CALM      30.25F FOG              
BANGOR ME      LGT RAIN  48  47  96 S5        30.29F FOG              
CONCORD NH     CLOUDY    50  50 100 CALM      30.20F FOG              
MANCHESTER NH  CLOUDY    53  50  89 SE5       30.19F FOG              
NASHUA NH      LGT RAIN  52  32  46 E5        30.20F                  
PORTSMOUTH NH  LGT RAIN  51  50  96 S12       30.21F FOG              
JAFFREY NH     CLOUDY    53  51  93 CALM      30.16F FOG              
KEENE NH       CLOUDY    52  52 100 CALM        N/A                   
BURLINGTON VT  LGT RAIN  53  51  93 SE6       30.08F FOG              
MT. WASHINGTON FOG       34  34 100 S39         N/A  VSB 1/16WCI  18  
$$

NYZ052-076-071700-
EASTERN NEW YORK
  
CITY           SKY/WX    TMP DP  RH WIND       PRES   REMARKS
ALBANY         CLOUDY    57  53  86 S12       30.13F                  
NEW YORK CITY  DRIZZLE   57  54  89 VRB6      30.16F FOG              
$$
 
ANZALL-071700-
MARINE OBSERVATIONS
  
STATION/POSITION TIME  TEMP    WIND        PRES    VSBY  WAVE
                       AIR SEA DIR/SP/G                  HT/PER
                 (UTC) (F)     (DEG/KT/KT) (MB)    (MI)  (FT/S)
BOSTON BUOY      1550      50  150/ 17/ 21 1023.9F         6/ 9
BUZZARDS BAY     1500   54     150/ 23/ 24 1024.6F
NANTUCKET SOUND  1550   52 49  140/ 16/ 17 1024.7F         2/ 3
MASS BAY-STELLWA 1404   51 50  140/ 19/ 25 1023.8F  1 5/8  6/ 5
ISLE OF SHOALS   1500   51     160/ 28/ 31 1023.1F
S OF BLOCK IS    1556      55                N/A           5/11
$$

......................KEY.........................
  SKY/WX - SKY CONDITION/PRESENT WEATHER
  TMP    - TEMPERATURE IN FAHRENHEIT
  DWPT   - DEWPOINT IN FAHRENHEIT
  RH     - RELATIVE HUMIDITY IN PERCENT
  WIND   - DIRECTION AND SPEED IN MPH
  PRES   - MEAN SEA LEVEL PRESSURE IN INCHES OF HG
  WCI    - WIND CHILL INDEX
  VSB    - VISIBILITY IN MILES
  HX     - HEAT INDEX
  TC     - TEMPERATURE IN CELSIUS
  VRB    - VARIABLE WIND DIRECTION
  N/A    - NOT AVAILABLE
  
      

Other recent Regional Weather Roundups

Thu Dec 8, 2:10pm

Thu Dec 8, 1:10pm

Thu Dec 8, 12:10pm

Thu Dec 8, 11:10am

Thu Dec 8, 10:10am

Thu Dec 8, 9:10am

Thu Dec 8, 8:10am

Thu Dec 8, 7:10am

Thu Dec 8, 6:10am

Thu Dec 8, 5:10am

Thu Dec 8, 4:10am

Thu Dec 8, 3:10am

Thu Dec 8, 2:10am

Thu Dec 8, 1:10am

Thu Dec 8, 12:10am

Wed Dec 7, 11:10pm

Wed Dec 7, 10:10pm

Wed Dec 7, 9:10pm

Wed Dec 7, 8:10pm

Wed Dec 7, 7:10pm

Wed Dec 7, 6:10pm

Wed Dec 7, 5:10pm

Wed Dec 7, 4:10pm

Wed Dec 7, 3:10pm

Wed Dec 7, 2:10pm

Wed Dec 7, 1:10pm

Wed Dec 7, 12:10pm

Wed Dec 7, 10:10am

Wed Dec 7, 9:10am

Wed Dec 7, 8:10am

Wed Dec 7, 7:10am

Wed Dec 7, 6:10am

Wed Dec 7, 5:10am

Wed Dec 7, 4:10am

Wed Dec 7, 3:10am

Wed Dec 7, 2:10am

Wed Dec 7, 1:10am

Wed Dec 7, 12:10am

Tue Dec 6, 11:10pm

Tue Dec 6, 10:10pm

Tue Dec 6, 9:10pm

Tue Dec 6, 8:10pm

Tue Dec 6, 7:10pm

Tue Dec 6, 6:10pm

Tue Dec 6, 5:10pm

Tue Dec 6, 4:10pm

Tue Dec 6, 3:10pm

Tue Dec 6, 2:10pm

Tue Dec 6, 1:10pm

Tue Dec 6, 12:10pm

Tue Dec 6, 11:10am

Tue Dec 6, 10:10am

Tue Dec 6, 9:10am

Tue Dec 6, 8:10am

Tue Dec 6, 7:10am

Tue Dec 6, 6:10am

Tue Dec 6, 5:10am

Tue Dec 6, 4:10am

Tue Dec 6, 3:10am

Tue Dec 6, 2:10am

Tue Dec 6, 1:10am

Tue Dec 6, 12:10am

Mon Dec 5, 11:10pm

Mon Dec 5, 10:10pm

Mon Dec 5, 9:10pm

Mon Dec 5, 8:10pm

Mon Dec 5, 7:10pm

Mon Dec 5, 6:10pm

Mon Dec 5, 5:10pm

Mon Dec 5, 4:10pm

Mon Dec 5, 3:10pm

Mon Dec 5, 2:10pm

Mon Dec 5, 1:10pm

Mon Dec 5, 12:10pm

Mon Dec 5, 11:10am

Mon Dec 5, 10:10am

Mon Dec 5, 9:10am

Mon Dec 5, 8:10am

Mon Dec 5, 7:10am

Mon Dec 5, 6:10am

Mon Dec 5, 5:10am

Mon Dec 5, 4:10am

Mon Dec 5, 3:10am

Mon Dec 5, 2:10am

Mon Dec 5, 1:10am

Mon Dec 5, 12:10am

Sun Dec 4, 11:10pm

Sun Dec 4, 10:10pm

Sun Dec 4, 9:10pm

Sun Dec 4, 8:10pm

Sun Dec 4, 7:10pm

Sun Dec 4, 6:10pm

Sun Dec 4, 5:10pm

Sun Dec 4, 4:10pm

Sun Dec 4, 3:10pm

Sun Dec 4, 2:10pm

Sun Dec 4, 1:10pm

Sun Dec 4, 12:10pm

Sun Dec 4, 11:10am

Sun Dec 4, 10:10am

Sun Dec 4, 9:10am

Sun Dec 4, 8:10am

Sun Dec 4, 7:10am

Sun Dec 4, 6:10am

Sun Dec 4, 5:10am

Sun Dec 4, 4:10am

Sun Dec 4, 3:10am

Sun Dec 4, 2:10am

Sun Dec 4, 1:10am

Sun Dec 4, 12:10am

Sat Dec 3, 11:10pm

Sat Dec 3, 10:10pm

Sat Dec 3, 9:10pm

Sat Dec 3, 8:10pm

Sat Dec 3, 7:10pm

Sat Dec 3, 6:10pm

Sat Dec 3, 5:10pm

Sat Dec 3, 4:10pm

Sat Dec 3, 3:10pm

Sat Dec 3, 2:10pm

Sat Dec 3, 1:10pm

Sat Dec 3, 12:10pm

Sat Dec 3, 11:10am

Sat Dec 3, 10:10am

Sat Dec 3, 9:10am

Sat Dec 3, 8:10am

Sat Dec 3, 7:10am

Sat Dec 3, 6:10am

Sat Dec 3, 5:10am

Sat Dec 3, 4:10am

Sat Dec 3, 3:10am

Sat Dec 3, 2:10am

Sat Dec 3, 1:10am

Sat Dec 3, 12:10am

Fri Dec 2, 11:10pm

Fri Dec 2, 10:10pm

Fri Dec 2, 9:10pm

Fri Dec 2, 8:10pm

Fri Dec 2, 7:10pm

Fri Dec 2, 6:10pm

Fri Dec 2, 5:10pm

Fri Dec 2, 4:10pm

Fri Dec 2, 3:10pm

Fri Dec 2, 2:10pm

Fri Dec 2, 1:10pm

Fri Dec 2, 12:10pm

Fri Dec 2, 11:10am

Fri Dec 2, 10:10am

Fri Dec 2, 9:10am

Fri Dec 2, 8:10am

Fri Dec 2, 7:10am

Fri Dec 2, 6:10am

Fri Dec 2, 5:10am

Fri Dec 2, 4:10am

Fri Dec 2, 3:10am

Fri Dec 2, 2:10am

Fri Dec 2, 1:10am

Fri Dec 2, 12:10am

Thu Dec 1, 11:10pm

Thu Dec 1, 10:10pm

Thu Dec 1, 9:10pm

Thu Dec 1, 8:10pm

Thu Dec 1, 7:10pm

Thu Dec 1, 6:10pm

Thu Dec 1, 5:10pm

Thu Dec 1, 4:10pm

Thu Dec 1, 3:10pm

Meta data:

ID: f11ffca6-ba6b-4306-a9f3-7c5d7f9ecbf1
Link: https://api.weather.gov/products/f11ffca6-ba6b-4306-a9f3-7c5d7f9ecbf1